SNKJ6 RPVD-RPVI

Flight info

Callsign SNKJ6
Flight time 0h 29m
Altitude 16000
Route AROLA3R AROLA DCT BCD BCD2S
Aircraft A320/M-SDE3FGHIRWY/LB1

Departure

Time 2026-04-24 11:25
Airport Sibulan Airport (RPVD)

Arrival

Time 2026-04-24 11:54
Airport Iloilo International Airport (RPVI)
Time Latitude Longitude Altitude Speed Heading
2026-04-24 11:08 9.33322 123.29580 25 ft 0 kts 149°
2026-04-24 11:20 9.33338 123.29571 16 ft 4 kts 156°
2026-04-24 11:20 9.33362 123.29564 24 ft 4 kts 193°
2026-04-24 11:20 9.33375 123.29572 21 ft 2 kts 272°
2026-04-24 11:21 9.33375 123.29573 21 ft 1 kts 273°
2026-04-24 11:23 9.33375 123.29572 21 ft 1 kts 273°
2026-04-24 11:23 9.33376 123.29559 22 ft 3 kts 273°
2026-04-24 11:23 9.33387 123.29525 25 ft 7 kts 304°
2026-04-24 11:23 9.33421 123.29488 28 ft 7 kts 317°
2026-04-24 11:24 9.33454 123.29473 28 ft 2 kts 52°
2026-04-24 11:24 9.33447 123.29500 28 ft 9 kts 97°
2026-04-24 11:24 9.33438 123.29808 23 ft 82 kts 91°
2026-04-24 11:24 9.33395 123.30596 10 ft 139 kts 93°
2026-04-24 11:25 9.33349 123.31650 435 ft 147 kts 90°
2026-04-24 11:25 9.33322 123.32676 1075 ft 145 kts 92°
2026-04-24 11:25 9.33517 123.33655 1588 ft 144 kts 57°
2026-04-24 11:25 9.34173 123.34449 1950 ft 153 kts 47°
2026-04-24 11:26 9.34937 123.35308 2129 ft 175 kts 47°
2026-04-24 11:26 9.35800 123.36283 2351 ft 196 kts 47°
2026-04-24 11:26 9.36741 123.37350 2646 ft 213 kts 48°
2026-04-24 11:26 9.37767 123.38523 2974 ft 234 kts 49°
2026-04-24 11:27 9.38856 123.39768 3740 ft 237 kts 49°
2026-04-24 11:27 9.39955 123.41025 4539 ft 240 kts 49°
2026-04-24 11:27 9.41071 123.42303 5287 ft 244 kts 50°
2026-04-24 11:27 9.42202 123.43603 6042 ft 249 kts 50°
2026-04-24 11:28 9.43359 123.44928 6769 ft 253 kts 50°
2026-04-24 11:28 9.44529 123.46271 7527 ft 255 kts 50°
2026-04-24 11:28 9.45828 123.47520 8223 ft 264 kts 39°
2026-04-24 11:28 9.47368 123.48659 8657 ft 281 kts 37°
2026-04-24 11:29 9.48981 123.49824 9318 ft 287 kts 37°
2026-04-24 11:29 9.50623 123.51006 10031 ft 291 kts 37°
2026-04-24 11:29 9.52320 123.52228 10333 ft 311 kts 37°
2026-04-24 11:29 9.54144 123.53541 10472 ft 333 kts 37°
2026-04-24 11:30 9.56071 123.54918 10921 ft 342 kts 34°
2026-04-24 11:30 9.58234 123.55963 11490 ft 349 kts 19°
2026-04-24 11:30 9.60614 123.56390 12081 ft 356 kts
2026-04-24 11:30 9.63095 123.56143 12692 ft 362 kts 347°
2026-04-24 11:31 9.65462 123.55234 13270 ft 367 kts 336°
2026-04-24 11:31 9.67790 123.54133 13852 ft 370 kts 336°
2026-04-24 11:31 9.70135 123.53018 14374 ft 373 kts 336°
2026-04-24 11:31 9.72494 123.51897 14888 ft 376 kts 336°
2026-04-24 11:32 9.74881 123.50764 15413 ft 379 kts 336°
2026-04-24 11:32 9.77282 123.49624 15772 ft 382 kts 336°
2026-04-24 11:32 9.79687 123.48485 15881 ft 385 kts 336°
2026-04-24 11:32 9.82131 123.47331 15905 ft 397 kts 336°
2026-04-24 11:33 9.84648 123.46143 15906 ft 400 kts 336°
2026-04-24 11:33 9.87168 123.44949 15906 ft 401 kts 336°
2026-04-24 11:33 9.89697 123.43751 15907 ft 401 kts 336°
2026-04-24 11:33 9.92219 123.42554 15906 ft 401 kts 336°
2026-04-24 11:34 9.93896 123.41759 15906 ft 401 kts 336°
2026-04-24 11:34 9.96419 123.40564 15907 ft 401 kts 336°
2026-04-24 11:34 9.99801 123.38965 15909 ft 401 kts 336°
2026-04-24 11:34 10.01476 123.38170 15909 ft 401 kts 336°
2026-04-24 11:35 10.03998 123.36974 15917 ft 401 kts 336°
2026-04-24 11:35 10.06527 123.35778 15920 ft 401 kts 336°
2026-04-24 11:35 10.09052 123.34585 15922 ft 401 kts 336°
2026-04-24 11:35 10.11580 123.33391 15924 ft 401 kts 336°
2026-04-24 11:36 10.14114 123.32194 15928 ft 401 kts 336°
2026-04-24 11:36 10.16650 123.30994 15930 ft 402 kts 336°
2026-04-24 11:36 10.19179 123.29795 15931 ft 402 kts 336°
2026-04-24 11:36 10.21714 123.28592 15933 ft 402 kts 336°
2026-04-24 11:37 10.24244 123.27389 15938 ft 402 kts 336°
2026-04-24 11:37 10.26774 123.26186 15939 ft 402 kts 336°
2026-04-24 11:37 10.29310 123.24983 15939 ft 402 kts 336°
2026-04-24 11:37 10.31839 123.23783 15941 ft 402 kts 336°
2026-04-24 11:38 10.34373 123.22579 15935 ft 402 kts 336°
2026-04-24 11:38 10.36908 123.21374 15942 ft 402 kts 336°
2026-04-24 11:38 10.39406 123.20188 15944 ft 402 kts 336°
2026-04-24 11:38 10.41942 123.18982 15945 ft 402 kts 336°
2026-04-24 11:39 10.44479 123.17776 15945 ft 402 kts 336°
2026-04-24 11:39 10.47011 123.16573 15945 ft 402 kts 336°
2026-04-24 11:39 10.49541 123.15372 15939 ft 402 kts 336°
2026-04-24 11:39 10.52077 123.14171 15936 ft 402 kts 336°
2026-04-24 11:40 10.54614 123.12967 15937 ft 402 kts 336°
2026-04-24 11:40 10.57149 123.11758 15937 ft 402 kts 336°
2026-04-24 11:40 10.59679 123.10549 15938 ft 402 kts 336°
2026-04-24 11:40 10.62216 123.09339 15943 ft 402 kts 336°
2026-04-24 11:41 10.64750 123.08136 15942 ft 402 kts 336°
2026-04-24 11:41 10.67258 123.06946 15740 ft 391 kts 336°
2026-04-24 11:41 10.69683 123.05792 15506 ft 380 kts 336°
2026-04-24 11:41 10.72043 123.04667 15262 ft 369 kts 336°
2026-04-24 11:42 10.74334 123.03575 15031 ft 359 kts 336°
2026-04-24 11:42 10.76528 123.02416 14797 ft 351 kts 327°
2026-04-24 11:42 10.78373 123.00823 14563 ft 346 kts 313°
2026-04-24 11:42 10.79835 122.98913 14363 ft 339 kts 307°
2026-04-24 11:43 10.81225 122.97014 14197 ft 330 kts 307°
2026-04-24 11:43 10.82594 122.95152 13868 ft 328 kts 307°
2026-04-24 11:43 10.83965 122.93290 13463 ft 328 kts 307°
2026-04-24 11:43 10.85318 122.91450 12848 ft 323 kts 307°
2026-04-24 11:44 10.86653 122.89633 12294 ft 317 kts 308°
2026-04-24 11:44 10.87953 122.87861 11850 ft 308 kts 308°
2026-04-24 11:44 10.89219 122.86135 11439 ft 300 kts 308°
2026-04-24 11:44 10.90446 122.84457 11048 ft 292 kts 308°
2026-04-24 11:45 10.91727 122.82888 10658 ft 286 kts 316°
2026-04-24 11:45 10.93123 122.81449 10230 ft 285 kts 316°
2026-04-24 11:45 10.94509 122.80016 9835 ft 282 kts 316°
2026-04-24 11:45 10.95883 122.78593 9398 ft 284 kts 316°
2026-04-24 11:46 10.97278 122.77151 8978 ft 287 kts 316°
2026-04-24 11:46 10.98685 122.75693 8559 ft 291 kts 316°
2026-04-24 11:46 11.00110 122.74213 8133 ft 294 kts 316°
2026-04-24 11:46 11.01549 122.72717 7706 ft 298 kts 316°
2026-04-24 11:47 11.02992 122.71223 7302 ft 300 kts 316°
2026-04-24 11:47 11.04458 122.69704 6956 ft 300 kts 316°
2026-04-24 11:47 11.05904 122.68204 6696 ft 296 kts 316°
2026-04-24 11:47 11.07343 122.66711 6393 ft 294 kts 315°
2026-04-24 11:48 11.08760 122.65222 6058 ft 293 kts 312°
2026-04-24 11:48 11.09745 122.63431 5743 ft 292 kts 285°
2026-04-24 11:48 11.09849 122.61376 5047 ft 296 kts 257°
2026-04-24 11:48 11.08960 122.59529 4554 ft 287 kts 227°
2026-04-24 11:49 11.07457 122.58328 4360 ft 265 kts 204°
2026-04-24 11:49 11.05817 122.57633 4215 ft 245 kts 197°
2026-04-24 11:49 11.04264 122.57082 4072 ft 229 kts 197°
2026-04-24 11:49 11.02803 122.56552 3840 ft 217 kts 197°
2026-04-24 11:50 11.01409 122.56037 3550 ft 209 kts 197°
2026-04-24 11:50 11.00057 122.55537 3286 ft 202 kts 197°
2026-04-24 11:50 10.98801 122.55071 3046 ft 188 kts 197°
2026-04-24 11:50 10.97613 122.54631 2810 ft 177 kts 195°
2026-04-24 11:51 10.96488 122.54214 2591 ft 167 kts 197°
2026-04-24 11:51 10.95404 122.53813 2382 ft 166 kts 197°
2026-04-24 11:51 10.94330 122.53416 2206 ft 162 kts 197°
2026-04-24 11:51 10.93271 122.53025 1974 ft 161 kts 198°
2026-04-24 11:52 10.92225 122.52638 1763 ft 158 kts 198°
2026-04-24 11:52 10.91200 122.52258 1561 ft 157 kts 197°
2026-04-24 11:52 10.90182 122.51882 1360 ft 155 kts 198°
2026-04-24 11:52 10.89163 122.51505 1160 ft 156 kts 199°
2026-04-24 11:53 10.88151 122.51130 968 ft 153 kts 199°
2026-04-24 11:53 10.87154 122.50763 782 ft 151 kts 199°
2026-04-24 11:53 10.86171 122.50383 588 ft 153 kts 201°
2026-04-24 11:53 10.85165 122.50012 363 ft 153 kts 201°
2026-04-24 11:54 10.84165 122.49651 158 ft 152 kts 199°
2026-04-24 11:54 10.83271 122.49321 141 ft 116 kts 200°
2026-04-24 11:54 10.82789 122.49143 140 ft 43 kts 200°
2026-04-24 11:54 10.82503 122.49036 142 ft 43 kts 200°
2026-04-24 11:55 10.82359 122.48987 143 ft 13 kts 192°
2026-04-24 11:55 10.82273 122.48973 143 ft 9 kts 226°
2026-04-24 11:55 10.82294 122.48944 143 ft 9 kts
2026-04-24 11:55 10.82366 122.48979 143 ft 13 kts 35°
2026-04-24 11:56 10.82453 122.49026 143 ft 16 kts 17°
2026-04-24 11:56 10.82568 122.49063 141 ft 19 kts 18°
2026-04-24 11:56 10.82704 122.49112 140 ft 22 kts 19°
2026-04-24 11:56 10.82855 122.49166 143 ft 24 kts 19°
2026-04-24 11:57 10.83010 122.49222 140 ft 19 kts 20°
2026-04-24 11:57 10.83078 122.49271 141 ft 12 kts 62°
2026-04-24 11:57 10.83067 122.49359 141 ft 15 kts 115°
2026-04-24 11:57 10.83030 122.49468 140 ft 17 kts 103°
2026-04-24 11:58 10.83053 122.49519 137 ft 7 kts 45°
2026-04-24 11:58 10.83098 122.49549 140 ft 9 kts 23°
2026-04-24 11:58 10.83141 122.49585 140 ft 8 kts 79°
2026-04-24 11:58 10.83122 122.49628 140 ft 2 kts 112°
2026-04-24 11:59 10.83118 122.49640 140 ft 1 kts 109°
2026-04-24 11:59 10.83116 122.49646 139 ft 0 kts 109°